Weather in Bialynichy

Belarus     53˚59′44″N   29˚42′31″E
temp.,
°C
wind,
m/s
gust,
m/s
humid.,
%
clouds,
%
prec.,
mm/h
press.,
hPa
HPBL,
m
1 december, tue
tue100:00−1˚s468788 0.1 1027317
03:00−2˚ssw369589 0.1 1027235
06:00−5˚sw349851 0.0 102897
09:00−3˚wsw239562 0.0 1029255
12:00−3˚ssw1192100 0.0 1030259
15:00−2˚sse1188100 0.0 1030303
18:00−3˚e229277 0.0 103191
21:00−4˚ene239440 0.0 103237
2 december, wed
wed200:00−5˚ene23940 0.0 103265
03:00−5˚ene23910 0.0 103357
06:00−5˚ene359315 0.0 1032113
09:00−2˚ene379455 0.0 1032272
12:00e5891100 0.1 1031560
15:00−1˚ese4783100 0.1 1030637
18:00−3˚e4791100 0.0 1029329
21:00−3˚ese4895100 0.1 1029377
3 december, thu
thu300:00−3˚se4796100 0.3 1028396
03:00−3˚se379699 0.4 1028299
06:00−3˚se489598 0.1 1027383
09:00−3˚se489596 0.3 1027378
12:00−2˚sse579199 0.1 1026522
15:00−2˚se4791100 0.1 1025506
18:00−2˚se4792100 0.0 1025461
21:00−2˚sse5892100 0.1 1025610
4 december, fri
fri400:00−1˚se5994100 0.1 1024472
03:00−1˚se61094100 0.1 1023397
06:00−1˚se6119499 0.1 1022577
09:00se61193100 0.1 1022543
12:00+1˚se71294100 0.0 1022597
15:00+1˚se71393100 0.1 1022575
18:00+1˚se71394100 0.0 1022584
21:00se81391100 0.0 1023675
5 december, sat
sat500:00se81294100 0.0 1023746
03:00+1˚sse61293100 0.0 1023644
06:00+1˚se61293100 0.0 1022554
09:00+1˚se71392100 0.0 1023509
12:00+2˚se81491100 0.0 1023534
15:00+2˚se81491100 0.0 1023543
18:00+2˚se71392100 0.0 1023519
21:00+1˚se71393100 0.1 1024619